OVO1093 ZJHK-ZSAM

Flight info

Callsign OVO1093
Flight time 1h 31m
Altitude 26600
Route SAMAS G221 BIGRO R200 BEBEM A470 TEBON
Aircraft A359/H-SDE2E3GHIJ1J3J4J5LM1ORWXYZ/LB1D1

Departure

Time 2026-04-23 17:20
Airport Haikou Meilan International Airport (ZJHK)

Arrival

Time 2026-04-23 18:51
Airport Xiamen Gaoqi International Airport (ZSAM)
Time Latitude Longitude Altitude Speed Heading
2026-04-23 16:42 19.93827 110.46987 82 ft 0 kts 269°
2026-04-23 17:03 19.93827 110.46996 85 ft 3 kts 269°
2026-04-23 17:03 19.93827 110.47016 84 ft 3 kts 269°
2026-04-23 17:04 19.93827 110.47036 85 ft 3 kts 269°
2026-04-23 17:04 19.93827 110.47055 85 ft 3 kts 269°
2026-04-23 17:04 19.93828 110.47075 84 ft 3 kts 269°
2026-04-23 17:04 19.93831 110.47097 87 ft 3 kts 236°
2026-04-23 17:05 19.93843 110.47113 85 ft 3 kts 224°
2026-04-23 17:05 19.93859 110.47126 85 ft 3 kts 190°
2026-04-23 17:05 19.93866 110.47128 86 ft 0 kts 181°
2026-04-23 17:09 19.93861 110.47127 85 ft 4 kts 181°
2026-04-23 17:09 19.93789 110.47127 85 ft 14 kts 179°
2026-04-23 17:09 19.93741 110.47061 87 ft 14 kts 266°
2026-04-23 17:09 19.93739 110.46949 86 ft 17 kts 271°
2026-04-23 17:10 19.93778 110.46873 88 ft 9 kts 344°
2026-04-23 17:10 19.93853 110.46868 85 ft 13 kts
2026-04-23 17:10 19.93959 110.46869 83 ft 17 kts 360°
2026-04-23 17:10 19.94095 110.46869 82 ft 22 kts
2026-04-23 17:11 19.94233 110.46869 68 ft 19 kts 360°
2026-04-23 17:11 19.94380 110.46868 69 ft 23 kts 359°
2026-04-23 17:11 19.94518 110.46867 66 ft 18 kts
2026-04-23 17:11 19.94658 110.46869 64 ft 22 kts
2026-04-23 17:12 19.94814 110.46868 62 ft 23 kts
2026-04-23 17:12 19.94971 110.46867 59 ft 24 kts 359°
2026-04-23 17:12 19.95101 110.46865 58 ft 16 kts 359°
2026-04-23 17:12 19.95198 110.46818 60 ft 17 kts 293°
2026-04-23 17:13 19.95207 110.46678 65 ft 20 kts 269°
2026-04-23 17:13 19.95205 110.46522 64 ft 23 kts 269°
2026-04-23 17:13 19.95205 110.46380 64 ft 16 kts 270°
2026-04-23 17:13 19.95206 110.46248 64 ft 20 kts 270°
2026-04-23 17:14 19.95205 110.46111 63 ft 19 kts 270°
2026-04-23 17:14 19.95205 110.45986 63 ft 17 kts 270°
2026-04-23 17:14 19.95205 110.45846 63 ft 21 kts 270°
2026-04-23 17:14 19.95204 110.45691 62 ft 16 kts 270°
2026-04-23 17:15 19.95204 110.45581 62 ft 17 kts 270°
2026-04-23 17:15 19.95204 110.45442 61 ft 21 kts 270°
2026-04-23 17:15 19.95203 110.45280 61 ft 21 kts 270°
2026-04-23 17:15 19.95203 110.45139 59 ft 20 kts 270°
2026-04-23 17:16 19.95202 110.44986 58 ft 22 kts 270°
2026-04-23 17:16 19.95202 110.44866 58 ft 6 kts 271°
2026-04-23 17:16 19.95231 110.44827 53 ft 8 kts 340°
2026-04-23 17:16 19.95254 110.44823 54 ft 0 kts 356°
2026-04-23 17:18 19.95258 110.44823 50 ft 3 kts 356°
2026-04-23 17:18 19.95323 110.44836 50 ft 16 kts 25°
2026-04-23 17:18 19.95372 110.44982 53 ft 0 kts 90°
2026-04-23 17:19 19.95372 110.44986 53 ft 6 kts 90°
2026-04-23 17:19 19.95373 110.45344 61 ft 93 kts 90°
2026-04-23 17:19 19.95377 110.46306 61 ft 166 kts 88°
2026-04-23 17:19 19.95400 110.47675 462 ft 200 kts 87°
2026-04-23 17:20 19.95665 110.49159 1304 ft 212 kts 66°
2026-04-23 17:20 19.97918 110.51084 2766 ft 223 kts 25°
2026-04-23 17:21 20.00861 110.52743 3636 ft 252 kts 33°
2026-04-23 17:21 20.02346 110.53762 4353 ft 255 kts 35°
2026-04-23 17:21 20.05273 110.55911 5758 ft 261 kts 35°
2026-04-23 17:22 20.06763 110.57037 6440 ft 265 kts 36°
2026-04-23 17:22 20.09908 110.59162 7713 ft 271 kts 18°
2026-04-23 17:23 20.13719 110.58921 8671 ft 289 kts 343°
2026-04-23 17:23 20.15683 110.58388 9254 ft 293 kts 342°
2026-04-23 17:23 20.19704 110.57328 10334 ft 308 kts 343°
2026-04-23 17:24 20.21803 110.56786 10604 ft 323 kts 343°
2026-04-23 17:24 20.24085 110.56200 10873 ft 338 kts 343°
2026-04-23 17:24 20.28765 110.55011 11748 ft 351 kts 343°
2026-04-23 17:25 20.33551 110.53800 12812 ft 356 kts 343°
2026-04-23 17:25 20.35969 110.53188 13334 ft 358 kts 343°
2026-04-23 17:26 20.40818 110.51959 14281 ft 363 kts 343°
2026-04-23 17:26 20.45808 110.50852 15215 ft 371 kts 351°
2026-04-23 17:27 20.50954 110.51717 16130 ft 386 kts 21°
2026-04-23 17:27 20.53274 110.53208 16576 ft 393 kts 36°
2026-04-23 17:27 20.55281 110.55216 17006 ft 399 kts 44°
2026-04-23 17:27 20.57156 110.57421 17396 ft 404 kts 47°
2026-04-23 17:28 20.58972 110.59722 17844 ft 406 kts 48°
2026-04-23 17:28 20.60769 110.62056 18259 ft 409 kts 49°
2026-04-23 17:28 20.62585 110.64409 18596 ft 412 kts 48°
2026-04-23 17:28 20.64423 110.66764 18945 ft 415 kts 48°
2026-04-23 17:29 20.66288 110.69125 19286 ft 417 kts 47°
2026-04-23 17:29 20.68175 110.71492 19640 ft 420 kts 47°
2026-04-23 17:29 20.72003 110.76267 20325 ft 426 kts 47°
2026-04-23 17:30 20.73976 110.78626 20610 ft 427 kts 41°
2026-04-23 17:30 20.78071 110.83270 21121 ft 432 kts 41°
2026-04-23 17:30 20.80102 110.85647 21403 ft 434 kts 43°
2026-04-23 17:31 20.82116 110.88073 21666 ft 436 kts 43°
2026-04-23 17:31 20.84109 110.90525 21921 ft 439 kts 44°
2026-04-23 17:31 20.86103 110.93012 22173 ft 441 kts 44°
2026-04-23 17:31 20.88096 110.95513 22428 ft 443 kts 44°
2026-04-23 17:32 20.90097 110.98029 22678 ft 445 kts 44°
2026-04-23 17:32 20.92108 111.00556 22919 ft 447 kts 44°
2026-04-23 17:32 20.94122 111.03087 23171 ft 449 kts 44°
2026-04-23 17:32 20.96158 111.05645 23395 ft 451 kts 44°
2026-04-23 17:33 20.98198 111.08203 23629 ft 453 kts 44°
2026-04-23 17:33 21.00253 111.10762 23849 ft 454 kts 44°
2026-04-23 17:33 21.02319 111.13327 24062 ft 456 kts 44°
2026-04-23 17:33 21.04393 111.15902 24287 ft 457 kts 43°
2026-04-23 17:34 21.06468 111.18481 24522 ft 458 kts 43°
2026-04-23 17:34 21.08551 111.21071 24763 ft 460 kts 43°
2026-04-23 17:34 21.12731 111.26283 25185 ft 463 kts 43°
2026-04-23 17:35 21.14826 111.28897 25415 ft 464 kts 43°
2026-04-23 17:35 21.19049 111.34171 25863 ft 467 kts 43°
2026-04-23 17:35 21.21143 111.36787 26087 ft 469 kts 43°
2026-04-23 17:36 21.23270 111.39446 26313 ft 470 kts 43°
2026-04-23 17:36 21.25402 111.42110 26474 ft 471 kts 43°
2026-04-23 17:36 21.27504 111.44745 26495 ft 456 kts 43°
2026-04-23 17:36 21.29530 111.47301 26505 ft 446 kts 43°
2026-04-23 17:37 21.31530 111.49827 26507 ft 443 kts 43°
2026-04-23 17:37 21.33527 111.52344 26507 ft 443 kts 43°
2026-04-23 17:37 21.37525 111.57369 26509 ft 443 kts 43°
2026-04-23 17:38 21.39531 111.59887 26511 ft 444 kts 43°
2026-04-23 17:38 21.41535 111.62403 26511 ft 444 kts 43°
2026-04-23 17:38 21.43541 111.64923 26511 ft 444 kts 43°
2026-04-23 17:38 21.45546 111.67442 26513 ft 444 kts 43°
2026-04-23 17:39 21.47551 111.69963 26511 ft 444 kts 43°
2026-04-23 17:39 21.49553 111.72481 26511 ft 444 kts 43°
2026-04-23 17:39 21.51558 111.75005 26517 ft 444 kts 43°
2026-04-23 17:39 21.53562 111.77530 26516 ft 444 kts 43°
2026-04-23 17:40 21.55559 111.80050 26518 ft 444 kts 43°
2026-04-23 17:40 21.57351 111.82790 26510 ft 452 kts 56°
2026-04-23 17:40 21.58767 111.85801 26524 ft 452 kts 59°
2026-04-23 17:40 21.60076 111.88866 26538 ft 451 kts 61°
2026-04-23 17:41 21.61330 111.91955 26523 ft 452 kts 62°
2026-04-23 17:41 21.63788 111.98176 26516 ft 452 kts 62°
2026-04-23 17:41 21.65015 112.01285 26518 ft 452 kts 62°
2026-04-23 17:42 21.67483 112.07500 26516 ft 452 kts 62°
2026-04-23 17:42 21.68721 112.10604 26516 ft 452 kts 62°
2026-04-23 17:42 21.69962 112.13711 26521 ft 452 kts 62°
2026-04-23 17:43 21.71202 112.16817 26520 ft 451 kts 62°
2026-04-23 17:43 21.72436 112.19908 26521 ft 451 kts 62°
2026-04-23 17:43 21.73674 112.23012 26522 ft 451 kts 62°
2026-04-23 17:43 21.74914 112.26123 26521 ft 451 kts 62°
2026-04-23 17:44 21.76149 112.29223 26521 ft 451 kts 62°
2026-04-23 17:44 21.77383 112.32321 26518 ft 451 kts 62°
2026-04-23 17:44 21.79853 112.38531 26521 ft 451 kts 62°
2026-04-23 17:45 21.81084 112.41629 26520 ft 451 kts 62°
2026-04-23 17:45 21.83549 112.47842 26527 ft 452 kts 62°
2026-04-23 17:45 21.84784 112.50959 26523 ft 453 kts 62°
2026-04-23 17:46 21.87263 112.57208 26526 ft 454 kts 62°
2026-04-23 17:46 21.88501 112.60283 26525 ft 454 kts 62°
2026-04-23 17:46 21.89780 112.63435 26520 ft 454 kts 62°
2026-04-23 17:47 21.91029 112.66506 26523 ft 454 kts 61°
2026-04-23 17:47 21.92292 112.69618 26519 ft 454 kts 61°
2026-04-23 17:47 21.94811 112.75848 26521 ft 454 kts 62°
2026-04-23 17:48 21.96067 112.78966 26520 ft 454 kts 62°
2026-04-23 17:48 21.97323 112.82086 26521 ft 453 kts 62°
2026-04-23 17:48 21.98566 112.85211 26520 ft 453 kts 62°
2026-04-23 17:48 21.99786 112.88332 26521 ft 453 kts 62°
2026-04-23 17:49 22.01004 112.91475 26518 ft 453 kts 63°
2026-04-23 17:49 22.02215 112.94605 26519 ft 453 kts 62°
2026-04-23 17:49 22.03429 112.97742 26516 ft 453 kts 62°
2026-04-23 17:49 22.04642 113.00868 26514 ft 453 kts 62°
2026-04-23 17:50 22.05899 113.03995 26512 ft 454 kts 61°
2026-04-23 17:50 22.08508 113.10205 26521 ft 455 kts 60°
2026-04-23 17:50 22.09821 113.13306 26514 ft 455 kts 60°
2026-04-23 17:51 22.11127 113.16404 26519 ft 454 kts 61°
2026-04-23 17:51 22.12429 113.19513 26519 ft 454 kts 61°
2026-04-23 17:51 22.15005 113.25726 26502 ft 455 kts 62°
2026-04-23 17:52 22.16222 113.28881 26501 ft 455 kts 63°
2026-04-23 17:52 22.18531 113.35240 26517 ft 455 kts 64°
2026-04-23 17:52 22.19674 113.38415 26498 ft 454 kts 64°
2026-04-23 17:53 22.22044 113.44729 26541 ft 452 kts 58°
2026-04-23 17:53 22.23709 113.47553 26537 ft 443 kts 45°
2026-04-23 17:53 22.25679 113.50106 26533 ft 444 kts 42°
2026-04-23 17:54 22.27756 113.52577 26533 ft 444 kts 40°
2026-04-23 17:54 22.29851 113.54973 26530 ft 445 kts 39°
2026-04-23 17:54 22.34156 113.59843 26528 ft 445 kts 39°
2026-04-23 17:55 22.38378 113.64683 26525 ft 446 kts 40°
2026-04-23 17:55 22.40493 113.67130 26514 ft 446 kts 40°
2026-04-23 17:55 22.42607 113.69585 26517 ft 446 kts 40°
2026-04-23 17:56 22.44714 113.72038 26517 ft 446 kts 40°
2026-04-23 17:56 22.48931 113.76949 26514 ft 446 kts 40°
2026-04-23 17:56 22.51050 113.79418 26535 ft 447 kts 40°
2026-04-23 17:57 22.53166 113.81882 26550 ft 447 kts 40°
2026-04-23 17:57 22.55290 113.84355 26541 ft 450 kts 41°
2026-04-23 17:57 22.59557 113.89329 26539 ft 452 kts 41°
2026-04-23 17:58 22.61696 113.91825 26543 ft 452 kts 41°
2026-04-23 17:58 22.63837 113.94325 26541 ft 452 kts 41°
2026-04-23 17:58 22.65973 113.96819 26536 ft 452 kts 41°
2026-04-23 17:58 22.68108 113.99318 26533 ft 452 kts 40°
2026-04-23 17:59 22.70018 114.02053 26529 ft 460 kts 54°
2026-04-23 17:59 22.71347 114.05216 26532 ft 464 kts 69°
2026-04-23 17:59 22.72070 114.08617 26540 ft 462 kts 77°
2026-04-23 17:59 22.72545 114.12054 26536 ft 461 kts 80°
2026-04-23 18:00 22.72904 114.15494 26535 ft 460 kts 82°
2026-04-23 18:00 22.73218 114.18946 26537 ft 460 kts 82°
2026-04-23 18:00 22.73525 114.22391 26536 ft 459 kts 82°
2026-04-23 18:00 22.73733 114.24671 26536 ft 459 kts 82°
2026-04-23 18:01 22.74174 114.29269 26534 ft 459 kts 82°
2026-04-23 18:01 22.74519 114.32710 26547 ft 459 kts 82°
2026-04-23 18:01 22.74873 114.36159 26531 ft 461 kts 82°
2026-04-23 18:01 22.75228 114.39608 26529 ft 462 kts 82°
2026-04-23 18:02 22.75462 114.41891 26530 ft 461 kts 82°
2026-04-23 18:02 22.75938 114.46521 26530 ft 461 kts 82°
2026-04-23 18:02 22.76291 114.49969 26531 ft 461 kts 82°
2026-04-23 18:02 22.76639 114.53374 26526 ft 461 kts 82°
2026-04-23 18:03 22.76879 114.55699 26530 ft 460 kts 82°
2026-04-23 18:03 22.77354 114.60314 26530 ft 460 kts 82°
2026-04-23 18:03 22.77705 114.63758 26532 ft 460 kts 82°
2026-04-23 18:03 22.78051 114.67159 26524 ft 460 kts 82°
2026-04-23 18:04 22.78401 114.70602 26521 ft 460 kts 82°
2026-04-23 18:04 22.78750 114.74044 26521 ft 460 kts 82°
2026-04-23 18:04 22.79104 114.77491 26521 ft 460 kts 82°
2026-04-23 18:04 22.79470 114.80934 26523 ft 460 kts 82°
2026-04-23 18:05 22.79838 114.84376 26519 ft 460 kts 82°
2026-04-23 18:05 22.80087 114.86698 26517 ft 460 kts 82°
2026-04-23 18:05 22.80456 114.90147 26525 ft 460 kts 82°
2026-04-23 18:05 22.80824 114.93589 26526 ft 460 kts 82°
2026-04-23 18:06 22.81189 114.97027 26526 ft 460 kts 82°
2026-04-23 18:06 22.81548 115.00428 26530 ft 460 kts 82°
2026-04-23 18:06 22.82030 115.05034 26526 ft 460 kts 82°
2026-04-23 18:06 22.82268 115.07304 26528 ft 460 kts 82°
2026-04-23 18:07 22.82630 115.10764 26533 ft 460 kts 82°
2026-04-23 18:07 22.82989 115.14206 26529 ft 460 kts 82°
2026-04-23 18:07 22.83349 115.17650 26524 ft 460 kts 82°
2026-04-23 18:07 22.83707 115.21096 26525 ft 460 kts 82°
2026-04-23 18:08 22.84066 115.24543 26520 ft 460 kts 82°
2026-04-23 18:08 22.84424 115.27993 26514 ft 460 kts 82°
2026-04-23 18:08 22.84781 115.31441 26518 ft 460 kts 82°
2026-04-23 18:08 22.85136 115.34884 26513 ft 460 kts 81°
2026-04-23 18:09 22.85491 115.38333 26515 ft 460 kts 81°
2026-04-23 18:09 22.85847 115.41771 26524 ft 460 kts 81°
2026-04-23 18:09 22.86203 115.45223 26530 ft 461 kts 82°
2026-04-23 18:09 22.86557 115.48688 26521 ft 463 kts 82°
2026-04-23 18:10 22.86910 115.52163 26524 ft 464 kts 82°
2026-04-23 18:10 22.87263 115.55634 26521 ft 464 kts 82°
2026-04-23 18:10 22.87615 115.59099 26521 ft 464 kts 82°
2026-04-23 18:10 22.87968 115.62584 26522 ft 464 kts 82°
2026-04-23 18:11 22.88319 115.66061 26514 ft 464 kts 82°
2026-04-23 18:11 22.88670 115.69537 26521 ft 463 kts 82°
2026-04-23 18:11 22.89021 115.73010 26524 ft 463 kts 82°
2026-04-23 18:11 22.89369 115.76474 26521 ft 463 kts 82°
2026-04-23 18:12 22.89718 115.79948 26511 ft 463 kts 82°
2026-04-23 18:12 22.90067 115.83425 26511 ft 463 kts 82°
2026-04-23 18:12 22.90414 115.86897 26514 ft 463 kts 82°
2026-04-23 18:12 22.90759 115.90360 26516 ft 463 kts 82°
2026-04-23 18:13 22.91116 115.93834 26510 ft 463 kts 81°
2026-04-23 18:13 22.91481 115.97299 26511 ft 462 kts 81°
2026-04-23 18:13 22.91850 116.00762 26510 ft 461 kts 81°
2026-04-23 18:13 22.92218 116.04220 26511 ft 461 kts 81°
2026-04-23 18:14 22.92583 116.07671 26508 ft 461 kts 81°
2026-04-23 18:14 22.92942 116.11127 26507 ft 461 kts 81°
2026-04-23 18:14 22.93297 116.14585 26516 ft 461 kts 81°
2026-04-23 18:14 22.93649 116.18025 26510 ft 461 kts 82°
2026-04-23 18:15 22.94002 116.21489 26511 ft 461 kts 82°
2026-04-23 18:15 22.94355 116.24945 26510 ft 461 kts 82°
2026-04-23 18:15 22.94707 116.28401 26515 ft 460 kts 82°
2026-04-23 18:15 22.95224 116.31819 26524 ft 458 kts 72°
2026-04-23 18:16 22.96343 116.35026 26522 ft 453 kts 57°
2026-04-23 18:16 22.98130 116.37795 26517 ft 445 kts 40°
2026-04-23 18:16 23.00391 116.40061 26506 ft 444 kts 32°
2026-04-23 18:17 23.05301 116.44150 26517 ft 446 kts 28°
2026-04-23 18:17 23.07809 116.46133 26516 ft 446 kts 28°
2026-04-23 18:17 23.10318 116.48126 26516 ft 447 kts 28°
2026-04-23 18:17 23.12816 116.50139 26518 ft 448 kts 29°
2026-04-23 18:18 23.15306 116.52172 26522 ft 448 kts 29°
2026-04-23 18:18 23.17787 116.54214 26519 ft 448 kts 29°
2026-04-23 18:18 23.20263 116.56264 26519 ft 448 kts 30°
2026-04-23 18:18 23.22739 116.58319 26517 ft 448 kts 30°
2026-04-23 18:19 23.25211 116.60373 26529 ft 448 kts 30°
2026-04-23 18:19 23.27696 116.62439 26524 ft 449 kts 30°
2026-04-23 18:19 23.30145 116.64474 26520 ft 450 kts 29°
2026-04-23 18:19 23.32633 116.66542 26521 ft 450 kts 30°
2026-04-23 18:20 23.35120 116.68610 26517 ft 450 kts 30°
2026-04-23 18:20 23.37606 116.70677 26518 ft 450 kts 30°
2026-04-23 18:20 23.40088 116.72742 26520 ft 450 kts 30°
2026-04-23 18:20 23.42575 116.74812 26514 ft 450 kts 29°
2026-04-23 18:21 23.44954 116.77088 26531 ft 456 kts 37°
2026-04-23 18:21 23.47195 116.79499 26447 ft 461 kts 38°
2026-04-23 18:21 23.49505 116.82049 26413 ft 483 kts 39°
2026-04-23 18:21 23.51902 116.84727 26387 ft 503 kts 39°
2026-04-23 18:22 23.54364 116.87515 26324 ft 515 kts 40°
2026-04-23 18:22 23.56831 116.90345 26118 ft 515 kts 41°
2026-04-23 18:22 23.59287 116.93182 25889 ft 514 kts 41°
2026-04-23 18:22 23.61740 116.96012 25652 ft 512 kts 41°
2026-04-23 18:23 23.63355 116.97867 25480 ft 510 kts 40°
2026-04-23 18:23 23.68978 117.04297 24058 ft 494 kts 40°
2026-04-23 18:24 23.73691 117.09679 22628 ft 486 kts 40°
2026-04-23 18:24 23.76013 117.12333 21941 ft 480 kts 40°
2026-04-23 18:24 23.78317 117.14925 21264 ft 473 kts 38°
2026-04-23 18:25 23.83107 117.19690 19927 ft 460 kts 36°
2026-04-23 18:25 23.85480 117.22012 19258 ft 455 kts 36°
2026-04-23 18:25 23.87822 117.24310 18601 ft 450 kts 36°
2026-04-23 18:25 23.90143 117.26577 17893 ft 445 kts 36°
2026-04-23 18:26 23.92437 117.28819 17201 ft 439 kts 36°
2026-04-23 18:26 23.94699 117.31026 16536 ft 432 kts 36°
2026-04-23 18:26 23.96923 117.33196 15908 ft 426 kts 36°
2026-04-23 18:26 23.99124 117.35345 15255 ft 422 kts 36°
2026-04-23 18:27 24.01302 117.37477 14615 ft 417 kts 36°
2026-04-23 18:27 24.03449 117.39584 13974 ft 412 kts 36°
2026-04-23 18:27 24.05571 117.41669 13302 ft 408 kts 36°
2026-04-23 18:27 24.07668 117.43724 12668 ft 402 kts 35°
2026-04-23 18:28 24.09762 117.45780 11666 ft 407 kts 36°
2026-04-23 18:28 24.11842 117.47841 11054 ft 399 kts 36°
2026-04-23 18:28 24.13862 117.49871 10820 ft 394 kts 39°
2026-04-23 18:28 24.15726 117.51995 10605 ft 386 kts 41°
2026-04-23 18:29 24.17501 117.54121 10374 ft 370 kts 41°
2026-04-23 18:29 24.19206 117.56158 10117 ft 356 kts 40°
2026-04-23 18:29 24.20857 117.58118 9851 ft 343 kts 41°
2026-04-23 18:29 24.22446 117.60010 9562 ft 332 kts 40°
2026-04-23 18:30 24.23985 117.61852 9162 ft 325 kts 41°
2026-04-23 18:30 24.25499 117.63672 8655 ft 323 kts 40°
2026-04-23 18:30 24.27005 117.65482 8256 ft 317 kts 41°
2026-04-23 18:30 24.28468 117.67227 8023 ft 304 kts 40°
2026-04-23 18:31 24.29862 117.68916 7796 ft 294 kts 41°
2026-04-23 18:31 24.31198 117.70542 7606 ft 282 kts 40°
2026-04-23 18:31 24.32498 117.72108 7436 ft 272 kts 41°
2026-04-23 18:31 24.33753 117.73631 7177 ft 267 kts 41°
2026-04-23 18:32 24.34982 117.75142 6836 ft 264 kts 42°
2026-04-23 18:32 24.36205 117.76633 6499 ft 262 kts 41°
2026-04-23 18:32 24.37427 117.78096 6193 ft 258 kts 41°
2026-04-23 18:32 24.38624 117.79533 5980 ft 252 kts 41°
2026-04-23 18:33 24.39680 117.81063 5602 ft 254 kts 58°
2026-04-23 18:33 24.40123 117.82919 5373 ft 250 kts 80°
2026-04-23 18:33 24.40276 117.84784 5195 ft 243 kts 82°
2026-04-23 18:33 24.40403 117.86633 4883 ft 242 kts 82°
2026-04-23 18:34 24.40531 117.88464 4604 ft 240 kts 82°
2026-04-23 18:34 24.40659 117.90253 4462 ft 229 kts 82°
2026-04-23 18:34 24.40825 117.91953 4370 ft 219 kts 77°
2026-04-23 18:34 24.41194 117.93513 4290 ft 205 kts 65°
2026-04-23 18:35 24.41785 117.94899 4046 ft 199 kts 54°
2026-04-23 18:35 24.42608 117.96139 3591 ft 203 kts 47°
2026-04-23 18:35 24.43472 117.97338 3239 ft 202 kts 48°
2026-04-23 18:35 24.44315 117.98552 2962 ft 197 kts 49°
2026-04-23 18:36 24.45132 117.99726 2718 ft 190 kts 48°
2026-04-23 18:36 24.45916 118.00855 2465 ft 183 kts 48°
2026-04-23 18:36 24.46697 118.01936 2222 ft 177 kts 47°
2026-04-23 18:36 24.47446 118.02979 1991 ft 172 kts 49°
2026-04-23 18:37 24.48138 118.03953 1774 ft 167 kts 50°
2026-04-23 18:37 24.48828 118.04921 1559 ft 157 kts 50°
2026-04-23 18:37 24.49482 118.05839 1346 ft 146 kts 50°
2026-04-23 18:37 24.50080 118.06683 1179 ft 135 kts 50°
2026-04-23 18:38 24.50641 118.07468 1001 ft 125 kts 50°
2026-04-23 18:38 24.51165 118.08207 827 ft 122 kts 49°
2026-04-23 18:38 24.51687 118.08937 679 ft 122 kts 49°
2026-04-23 18:38 24.52204 118.09663 529 ft 120 kts 51°
2026-04-23 18:39 24.52728 118.10381 381 ft 121 kts 50°
2026-04-23 18:39 24.53248 118.11110 265 ft 123 kts 51°
2026-04-23 18:39 24.53773 118.11855 101 ft 123 kts 51°
2026-04-23 18:39 24.54296 118.12555 105 ft 114 kts 47°
2026-04-23 18:40 24.54987 118.13396 418 ft 183 kts 43°
2026-04-23 18:40 24.55918 118.14507 1311 ft 202 kts 46°
2026-04-23 18:40 24.56808 118.15710 2172 ft 203 kts 49°
2026-04-23 18:40 24.57681 118.16857 2718 ft 208 kts 42°
2026-04-23 18:41 24.58992 118.17454 3098 ft 216 kts 356°
2026-04-23 18:41 24.60311 118.16834 3527 ft 223 kts 312°
2026-04-23 18:41 24.60892 118.15344 3851 ft 213 kts 268°
2026-04-23 18:41 24.60403 118.13822 3914 ft 217 kts 235°
2026-04-23 18:42 24.59594 118.12396 3896 ft 223 kts 237°
2026-04-23 18:42 24.58897 118.10858 3882 ft 226 kts 244°
2026-04-23 18:42 24.58328 118.09245 3888 ft 227 kts 248°
2026-04-23 18:42 24.57841 118.07607 3896 ft 224 kts 250°
2026-04-23 18:43 24.57402 118.05962 3891 ft 223 kts 251°
2026-04-23 18:43 24.56990 118.04323 3894 ft 223 kts 252°
2026-04-23 18:43 24.56574 118.02677 3897 ft 223 kts 250°
2026-04-23 18:43 24.55926 118.01148 3899 ft 220 kts 232°
2026-04-23 18:44 24.54951 117.99850 3889 ft 222 kts 225°
2026-04-23 18:44 24.53900 117.98597 3890 ft 224 kts 224°
2026-04-23 18:44 24.52843 117.97343 3853 ft 221 kts 224°
2026-04-23 18:44 24.51817 117.96114 3587 ft 218 kts 225°
2026-04-23 18:45 24.50788 117.94872 3212 ft 221 kts 225°
2026-04-23 18:45 24.49753 117.93620 3015 ft 222 kts 225°
2026-04-23 18:45 24.48717 117.92367 2985 ft 222 kts 225°
2026-04-23 18:45 24.47647 117.91178 2996 ft 220 kts 218°
2026-04-23 18:46 24.46324 117.90426 3001 ft 217 kts 190°
2026-04-23 18:46 24.44806 117.90506 3002 ft 221 kts 159°
2026-04-23 18:46 24.43509 117.91337 3005 ft 220 kts 137°
2026-04-23 18:46 24.42544 117.92662 2994 ft 222 kts 114°
2026-04-23 18:47 24.42266 117.94303 2995 ft 221 kts 80°
2026-04-23 18:47 24.42690 117.95901 2981 ft 222 kts 63°
2026-04-23 18:47 24.43487 117.97378 2987 ft 223 kts 49°
2026-04-23 18:47 24.44469 117.98703 2920 ft 225 kts 46°
2026-04-23 18:48 24.45435 118.00048 2673 ft 224 kts 49°
2026-04-23 18:48 24.46338 118.01374 2376 ft 215 kts 49°
2026-04-23 18:48 24.47228 118.02648 2080 ft 207 kts 49°
2026-04-23 18:48 24.48095 118.03867 1812 ft 191 kts 49°
2026-04-23 18:49 24.48869 118.04973 1564 ft 175 kts 50°
2026-04-23 18:49 24.49569 118.05974 1341 ft 160 kts 49°
2026-04-23 18:49 24.50244 118.06902 1134 ft 148 kts 48°
2026-04-23 18:49 24.50859 118.07766 931 ft 139 kts 50°
2026-04-23 18:50 24.51049 118.08038 877 ft 136 kts 49°
2026-04-23 18:50 24.51964 118.09324 607 ft 122 kts 50°
2026-04-23 18:50 24.52489 118.10062 421 ft 119 kts 51°
2026-04-23 18:50 24.53000 118.10778 306 ft 120 kts 50°
2026-04-23 18:51 24.53516 118.11501 159 ft 121 kts 51°
2026-04-23 18:51 24.54030 118.12222 57 ft 120 kts 49°
2026-04-23 18:51 24.54419 118.12778 51 ft 57 kts 52°
2026-04-23 18:51 24.54515 118.13011 55 ft 42 kts 77°
2026-04-23 18:52 24.54540 118.13150 54 ft 18 kts 79°
2026-04-23 18:52 24.54623 118.13353 49 ft 20 kts 52°
2026-04-23 18:52 24.54722 118.13488 49 ft 25 kts 51°
2026-04-23 18:52 24.54800 118.13597 49 ft 16 kts 52°
2026-04-23 18:53 24.54869 118.13706 53 ft 12 kts 79°
2026-04-23 18:53 24.54841 118.13761 50 ft 14 kts 135°
2026-04-23 18:53 24.54769 118.13824 48 ft 16 kts 141°
2026-04-23 18:53 24.54722 118.13892 48 ft 8 kts 85°
2026-04-23 18:54 24.54754 118.13945 51 ft 9 kts 54°
2026-04-23 18:54 24.54756 118.13948 51 ft 0 kts 54°